TimeMDT,TemperatureF,Dew PointF,Humidity,Sea Level PressureIn,VisibilityMPH,Wind Direction,Wind SpeedMPH,Gust SpeedMPH,PrecipitationIn,Events,Conditions,WindDirDegrees,DateUTC
12:53 AM,72.0,52.0,49,29.98,10.0,SE,5.8,-,N/A,,Clear,130,2013-07-17 06:53:00
1:53 AM,68.0,54.0,61,30.00,10.0,ENE,11.5,-,N/A,,Scattered Clouds,60,2013-07-17 07:53:00
2:53 AM,71.1,52.0,51,29.99,10.0,ESE,8.1,19.6,N/A,,Overcast,120,2013-07-17 08:53:00
3:53 AM,66.0,53.1,63,30.00,10.0,NNE,4.6,-,N/A,,Clear,30,2013-07-17 09:53:00
4:53 AM,64.9,55.0,70,30.02,10.0,NE,8.1,-,N/A,,Clear,50,2013-07-17 10:53:00
5:53 AM,66.0,55.9,70,30.03,10.0,ENE,11.5,-,N/A,,Clear,60,2013-07-17 11:53:00
6:53 AM,66.0,55.9,70,30.05,10.0,East,10.4,-,N/A,,Partly Cloudy,80,2013-07-17 12:53:00
7:53 AM,66.9,57.0,70,30.06,10.0,East,9.2,-,N/A,,Clear,90,2013-07-17 13:53:00
8:53 AM,71.1,57.0,61,30.07,10.0,East,8.1,-,N/A,,Clear,80,2013-07-17 14:53:00
9:53 AM,75.0,54.0,48,30.06,10.0,ENE,13.8,-,N/A,,Scattered Clouds,70,2013-07-17 15:53:00
10:53 AM,78.1,53.1,42,30.05,10.0,ENE,15.0,24.2,N/A,,Clear,70,2013-07-17 16:53:00
11:53 AM,80.1,52.0,38,30.03,10.0,East,11.5,20.7,N/A,,Clear,80,2013-07-17 17:53:00
12:53 PM,84.0,51.1,32,29.99,10.0,East,17.3,24.2,N/A,,Clear,80,2013-07-17 18:53:00
1:53 PM,82.9,50.0,32,29.99,10.0,ENE,13.8,19.6,N/A,,Mostly Cloudy,70,2013-07-17 19:53:00
2:53 PM,82.0,51.1,34,29.96,10.0,East,13.8,23.0,N/A,,Mostly Cloudy,80,2013-07-17 20:53:00
3:15 PM,73.4,60.8,65,30.19,5.0,East,17.3,-,0.05,Rain-Thunderstorm,Light Rain,80,2013-07-17 21:15:00
3:34 PM,73.4,59.0,61,30.17,10.0,East,13.8,-,0.06,Rain,Light Rain,80,2013-07-17 21:34:00
3:53 PM,70.0,59.0,68,30.00,10.0,East,23.0,32.2,0.06,,Mostly Cloudy,100,2013-07-17 21:53:00
4:17 PM,69.8,57.2,64,30.20,10.0,East,24.2,33.4,N/A,Thunderstorm,Mostly Cloudy,90,2013-07-17 22:17:00
4:32 PM,75.2,57.2,53,30.19,10.0,East,19.6,28.8,N/A,,Partly Cloudy,100,2013-07-17 22:32:00
4:53 PM,73.9,55.9,53,30.01,10.0,East,16.1,25.3,N/A,,Clear,90,2013-07-17 22:53:00
5:53 PM,75.9,55.0,48,29.98,10.0,ESE,15.0,-,N/A,,Partly Cloudy,110,2013-07-17 23:53:00
6:53 PM,75.0,55.0,50,29.99,10.0,ESE,10.4,-,N/A,,Clear,110,2013-07-18 00:53:00
7:53 PM,73.9,55.9,53,30.01,10.0,SE,11.5,-,N/A,,Clear,130,2013-07-18 01:53:00
8:53 PM,72.0,55.0,55,30.03,10.0,SE,9.2,-,N/A,,Clear,130,2013-07-18 02:53:00
9:53 PM,69.1,55.0,61,30.05,10.0,East,12.7,-,N/A,,Clear,100,2013-07-18 03:53:00
10:53 PM,68.0,55.9,65,30.06,10.0,East,9.2,-,N/A,,Clear,90,2013-07-18 04:53:00
11:53 PM,66.0,55.9,70,30.06,10.0,East,6.9,-,N/A,,Clear,80,2013-07-18 05:53:00